{"data":{"norad_id":51980,"epoch":"2026-09-20T04:59:08.405088Z","epoch_age_seconds":81393,"freshness":"FRESH","line1":"1 51980U 22025AA  26263.20773617  .00005305  00000+0  16274-3 0  9991","line2":"2 51980  53.1596 236.7537 0001121  98.4298 261.6832 15.35424715250543","mean_motion":15.35424715,"eccentricity":0.0001121,"inclination_deg":53.1596,"raan_deg":236.7537,"arg_perigee_deg":98.4298,"mean_anomaly_deg":261.6832,"bstar":0.00016274,"rev_number":25054,"period_min":93.785125765675,"perigee_km":458.89274829666,"apogee_km":460.42578221933,"semimajor_km":6837.796265258,"source":"CELESTRAK","updated_at":"2026-09-20T09:00:39.979117Z"}}